STARLINK-33705, 63651

Orbit data source: Space-Track

STARLINK-33705, 63651 is a payload satellite owned by SpaceX/Seattle (US) in LEO that was launched on Fri, 25 Apr 2025 UTC via an FALCON 9 launch vehicle from the Air Force Eastern Test Range (AFETR). Payload-class satellites include a variety of spacecraft equipped with specific instruments for various scientific and technological missions. These include communications satellites like Starlink; space stations such as the ISS; scientific satellites like the Hubble; Earth observation satellites from companies like Planet Labs, Umbra, and HawkEye 360; GPS; miniature CubeSats for education and research; and military/defense satellites.

Loading next visibility...
Identifier
63651, 2025-083T
Orbit
LEO
Country
Flag of USUS
Related business
Manufacturer
SpaceX/Seattle
Mission
Operational Commercial Communications
Bus & Motor
STARLINK V2MO, Unknown motor
Mass
575 kg wet, ~530 kg dry
Launch date (UTC)
2025-04-25 (1 year ago)
Launch vehicle
FALCON 9
Launch site
Air Force Eastern Test Range (AFETR)
Object type
Payload
Rocket body
Debris
Shape & HBR
Box + 2 Pan, 17.7 m
Radar Cross Section
36.964 m², Large (>1 m²)

Expand to show TLE details & history
Last TLE update: 14 hours ago

TLE from 14 hours ago
0 STARLINK-33705
1 63651U 25083T   26171.25279721  .00011925  00000-0  44197-3 0  9997
2 63651  43.0031 145.8865 0001564 271.0439  89.0234 15.27595747 65787
Epoch: 2026-06-20T06:04Z
TLE epoch observation values (Epoch: 2026-06-20T06:04:01.678Z)
Latitude
-0°
Longitude
146.40942°
Altitude
482.76 km
Speed
7.626 km/s
True Right ascension
09h 43m 32s
True Declination
0° 00' 00"
Sunlit
Object was in daylight at epoch
Visualization orbit readout
Latitude
Unknown
Longitude
Unknown
Altitude
Unknown
Speed
Unknown
Apparent Right ascension
Unknown
Apparent Declination
Unknown
Sunlit
N/A
Visualization observer readout
Local Sidereal Time
07:18:12
Azimuth
Unknown
Elevation
Unknown
Doppler factor
Unknown
Orbital elements
Apogee altitude
486.02 km
Perigee altitude
483.873 km
Semi-major axis
6,863.084 km
Eccentricity
0.00016
Inclination
43.0031°
RAAN
145.8865°
Arg. of periapsis
271.0439°
True anomaly
89.04132°
Mean anomaly
89.0234°
Eccentric anomaly
89.03236°
Mean motion
3.81737 °/min
Orbital period
94.31 mins
BSTAR
0.00044197
Loading maneuver chart data...
Computing Atmospheric mass density...
Loading historical data...
Loading historical data...
Loading historical data...
Loading historical data...
Loading historical data...
Loading historical data...
Loading historical data...

Documentation

Showing up to 5 results
|